Wetbulb
65.59 68.16 71.64 72.52 72.25 71.88 71.78 71.37 71.24 71.90 71.56 70.92 70.33 69.98 69.33 68.53 68.10 67.86 67.60 67.31 67.13 67.25 67.09 66.97 67.49 67.37 66.90 67.06 66.36 65.59 65.57 65.70 65.72 65.56 65.38 65.90 65.92 66.00 65.78 65.14 64.76 62.41 65.37
65.90 69.23 70.73 72.42 72.17 71.66 71.44 71.51 71.43 71.61 71.68 71.07 70.85 70.01 69.36 68.18 67.69 67.44 67.17 66.88 67.07 66.92 66.60 66.76 67.03 66.74 66.34 66.24 66.13 65.48 65.12 65.31 65.45 65.44 65.18 65.17 65.37 65.53 65.36 64.99 65.26 64.60 65.77
67.80 69.02 69.51 71.39 71.70 71.30 70.98 71.32 71.52 71.66 71.22 70.94 70.72 69.96 69.09 68.18 67.52 66.78 66.87 66.51 66.76 66.45 66.25 66.83 66.69 66.13 66.24 66.39 65.75 65.51 65.08 65.00 65.05 64.76 64.31 62.06 62.92 65.34 65.57 65.36 65.51 65.70 66.42
67.97 67.78 68.58 70.54 71.39 70.80 70.99 71.10 71.38 71.60 71.17 70.70 70.11 69.57 68.92 68.15 67.15 66.70 66.51 66.36 66.46 65.89 66.03 66.63 66.37 66.24 66.22 65.93 65.55 65.22 64.88 64.89 64.50 63.36 60.04 61.77 62.91 65.79 66.09 66.20 65.72 65.72 65.71
66.59 66.97 68.00 70.00 71.05 70.72 70.93 70.59 70.77 71.15 70.58 70.28 69.66 69.40 68.55 67.59 66.92 66.33 65.98 65.88 66.27 65.88 65.94 66.10 65.80 66.15 66.10 65.91 65.51 65.08 65.04 64.67 63.57 61.26 59.94 62.10 61.66 65.60 66.80 66.37 65.50 65.59 66.29
65.40 66.70 68.34 70.07 70.40 70.19 70.49 70.25 70.66 70.18 70.36 70.58 69.69 68.93 68.32 67.64 66.75 65.57 66.37 65.36 65.70 65.76 65.53 65.68 65.74 65.75 65.82 65.58 65.39 64.81 64.78 63.89 61.55 58.84 59.42 61.46 63.66 67.21 67.70 67.50 66.89 66.48 66.46
64.94 66.34 67.64 69.17 69.73 69.82 70.04 70.34 70.27 70.27 70.89 70.99 69.92 68.45 67.62 66.87 66.46 65.85 65.84 65.27 65.60 65.34 65.21 65.17 65.05 65.12 65.31 65.41 65.31 64.13 62.79 61.58 57.85 58.12 58.96 59.97 62.44 67.16 67.22 66.11 65.96 65.76 64.65
65.39 66.29 67.33 66.50 67.56 68.26 68.86 69.89 69.71 70.50 70.61 70.41 69.58 68.25 67.58 66.93 65.91 65.72 65.65 65.63 65.36 65.15 64.72 64.50 64.26 64.36 64.45 64.31 64.11 63.37 61.57 60.23 57.93 58.07 58.74 59.92 65.41 66.81 66.32 64.80 64.76 63.67 62.76
65.93 65.84 65.93 66.16 65.94 65.34 66.29 66.67 67.27 69.21 69.15 69.27 68.72 68.31 67.57 67.10 66.40 65.90 65.82 65.40 65.19 64.69 64.34 64.00 63.59 63.60 63.72 63.59 63.31 63.05 61.09 59.99 56.89 58.47 60.40 60.33 65.99 65.45 64.59 63.79 62.93 62.64 62.29
64.68 64.62 64.42 64.85 65.11 64.47 63.95 63.75 64.79 66.00 67.26 67.18 66.69 65.68 64.81 64.94 65.34 64.76 63.93 65.14 64.85 64.28 63.75 63.30 63.15 62.78 62.24 62.80 62.75 62.11 60.36 59.39 57.23 58.47 59.39 61.85 64.69 63.88 63.02 62.55 62.10 61.94 60.86
63.47 63.14 63.55 63.76 63.71 63.50 62.59 61.39 62.40 64.04 64.13 63.89 63.51 62.33 61.51 61.14 61.39 61.30 61.71 64.15 64.50 64.05 63.11 62.68 61.98 61.36 61.19 60.72 61.46 60.74 58.55 56.47 57.23 58.36 59.63 62.96 63.27 62.66 62.14 61.69 61.80 60.26 59.33
61.77 62.95 63.19 62.91 62.72 62.66 63.10 61.25 61.53 62.56 61.38 60.78 60.72 60.28 60.57 59.90 59.72 60.44 59.64 61.96 62.90 62.68 63.14 62.14 61.66 61.11 58.59 56.39 56.53 58.09 56.05 56.27 57.30 57.57 57.41 62.19 61.94 61.80 61.56 61.52 59.49 58.82 58.47
61.56 62.76 63.35 62.32 62.38 61.78 61.43 60.56 60.19 60.35 59.94 59.11 58.86 59.48 59.59 59.37 58.16 58.04 57.60 58.24 57.15 57.45 56.76 57.67 57.48 56.64 56.66 56.15 55.97 56.21 55.80 55.82 55.91 53.84 57.01 60.51 61.05 61.00 61.59 59.91 58.56 58.49 57.82
61.76 62.65 62.83 62.58 62.13 61.31 61.10 60.13 59.48 59.38 58.92 58.58 58.75 59.92 58.76 57.14 55.73 55.22 55.33 55.00 54.60 55.80 55.32 55.70 56.17 56.28 56.09 56.44 56.47 56.69 55.30 55.51 53.36 51.28 53.97 57.17 60.52 60.41 60.55 58.87 58.31 57.64 57.34
61.90 62.33 62.70 62.62 62.51 61.87 60.81 60.26 59.56 58.84 58.74 58.89 59.05 59.59 58.84 56.87 55.28 54.70 54.46 54.32 54.86 55.28 55.68 55.60 55.80 56.26 56.02 56.38 56.54 56.69 54.91 54.54 51.31 50.74 51.23 55.26 58.62 60.83 59.05 58.20 57.32 56.91 56.86
62.50 62.81 63.10 62.17 63.00 62.47 61.43 59.95 59.89 59.20 58.91 58.78 58.68 58.87 58.52 57.59 56.10 55.96 55.50 55.80 55.99 56.73 56.73 56.37 56.11 56.09 55.91 56.16 56.86 58.56 56.32 55.05 51.49 50.16 50.51 52.55 58.04 58.05 57.00 56.66 56.22 56.28 56.26
62.50 63.42 63.71 62.19 62.57 61.71 61.42 60.79 59.70 59.70 59.58 59.11 59.01 58.88 58.82 57.94 56.73 56.51 56.33 55.97 56.91 56.99 56.77 56.25 56.31 56.21 55.70 56.86 56.42 58.48 56.41 53.73 50.29 48.83 48.76 49.48 50.82 54.58 54.33 54.40 54.22 54.71 55.22
60.75 61.95 63.51 63.94 62.11 61.49 60.71 60.16 59.52 58.91 58.93 59.09 58.93 58.81 58.73 58.23 56.78 55.82 56.04 56.63 57.39 57.13 56.91 56.23 55.74 54.90 54.41 53.96 54.73 55.88 55.67 53.37 50.04 47.86 47.49 47.49 47.20 46.81 49.45 51.60 51.56 52.72 53.67
60.62 60.44 61.25 64.06 61.18 61.14 61.12 59.92 59.28 58.05 58.05 58.38 58.11 58.33 58.29 58.02 57.20 56.09 56.37 56.97 57.71 57.27 56.71 56.29 55.12 53.84 53.66 53.09 53.82 54.25 53.55 52.84 49.13 47.25 45.13 46.27 46.04 43.25 42.81 48.13 47.95 49.46 51.32
60.34 59.94 60.68 61.78 63.53 60.38 60.08 59.73 57.61 57.31 57.72 57.90 58.33 58.75 58.36 58.52 58.14 56.84 56.85 57.19 57.27 56.27 55.83 55.20 54.63 54.16 53.54 52.69 54.55 52.31 50.09 46.65 44.57 44.86 44.03 45.55 42.85 40.39 38.57 38.78 38.34 41.13 48.55
58.77 59.05 59.70 60.06 62.15 62.21 58.55 56.58 56.51 56.91 56.60 56.64 57.56 58.44 58.39 58.26 57.84 57.37 56.85 56.83 56.67 56.39 56.12 55.68 54.50 53.81 53.50 53.79 51.63 50.83 49.54 45.74 42.86 42.82 43.17 42.52 40.01 37.15 35.66 35.76 34.69 35.16 37.75
59.04 59.38 59.35 59.73 61.28 62.48 62.31 59.86 58.64 57.73 56.47 57.62 56.87 56.63 58.36 58.22 58.31 58.21 57.24 56.85 56.53 56.07 55.50 55.00 54.02 52.94 52.93 53.62 50.82 50.99 48.28 46.25 42.85 41.73 41.96 41.29 37.32 35.96 35.50 35.64 34.00 34.16 35.12
58.58 58.68 59.38 59.67 60.44 62.15 62.96 60.57 57.71 56.44 56.02 54.73 54.70 56.32 57.49 58.69 58.58 58.37 57.69 57.71 56.91 56.97 56.83 55.34 54.90 53.53 52.27 52.56 52.55 51.28 48.68 46.75 42.45 39.52 39.70 41.03 36.57 34.53 34.25 34.69 33.79 33.44 34.44
58.93 59.71 59.82 60.10 60.42 61.44 62.44 61.23 59.83 57.86 55.97 56.89 56.78 56.95 57.31 58.51 58.82 58.72 58.30 57.75 57.40 57.21 56.79 56.71 56.06 55.46 52.85 51.62 52.70 54.12 51.45 49.33 44.48 38.22 37.77 36.40 36.95 35.35 33.40 33.63 33.26 32.81 33.61
59.52 59.78 59.71 59.76 59.94 61.05 61.55 61.89 60.43 59.95 59.79 58.42 57.28 56.06 56.56 57.35 58.80 58.91 58.89 58.01 57.86 57.82 57.64 57.07 54.72 55.00 55.14 53.69 52.07 50.04 49.69 46.40 45.53 41.41 36.14 34.64 37.08 36.66 33.87 33.24 33.19 32.19 32.50
58.37 59.61 59.73 58.81 58.67 60.20 60.71 60.69 60.52 59.81 59.62 58.46 56.84 57.13 57.29 57.71 58.02 59.00 58.74 58.73 58.47 58.38 57.56 56.97 56.49 55.62 55.76 55.76 55.00 51.64 50.41 48.07 44.46 40.84 38.30 34.40 34.83 36.27 35.60 32.77 32.55 31.91 31.74
MSLP
1020.08 1019.84 1019.78 1019.77 1019.87 1020.03 1020.18 1020.35 1020.53 1020.51 1020.54 1020.65 1020.80 1021.01 1021.18 1021.31 1021.40 1021.48 1021.51 1021.51 1021.59 1021.57 1021.61 1021.61 1021.64 1021.87 1021.85 1021.96 1022.07 1022.17 1022.04 1022.04 1022.02 1021.89 1021.83 1021.75 1021.63 1021.60 1021.65 1021.67 1021.65 1021.46 1021.24
1019.68 1019.79 1019.88 1019.88 1020.03 1020.20 1020.41 1020.53 1020.77 1020.76 1020.86 1020.94 1021.08 1021.32 1021.48 1021.64 1021.76 1021.85 1021.93 1021.93 1022.00 1022.03 1022.06 1022.10 1022.22 1022.28 1022.27 1022.25 1022.39 1022.51 1022.52 1022.56 1022.56 1022.48 1022.40 1022.23 1021.99 1022.01 1021.92 1021.89 1021.76 1021.65 1021.53
1019.67 1019.86 1020.03 1020.09 1020.30 1020.46 1020.61 1020.69 1020.86 1020.94 1021.06 1021.19 1021.35 1021.57 1021.81 1021.96 1022.08 1022.16 1022.32 1022.32 1022.39 1022.46 1022.48 1022.46 1022.57 1022.62 1022.61 1022.49 1022.74 1022.85 1022.95 1023.03 1022.97 1022.86 1022.80 1022.64 1022.38 1022.20 1022.18 1022.19 1022.17 1022.06 1021.91
1019.84 1020.10 1020.29 1020.33 1020.52 1020.73 1020.82 1020.88 1021.03 1021.10 1021.23 1021.46 1021.57 1021.75 1022.07 1022.28 1022.39 1022.52 1022.63 1022.75 1022.79 1022.84 1022.85 1022.84 1022.89 1022.94 1022.91 1023.00 1023.12 1023.24 1023.36 1023.36 1023.28 1023.20 1023.15 1022.85 1022.59 1022.46 1022.48 1022.46 1022.38 1022.37 1022.20
1020.12 1020.37 1020.48 1020.58 1020.82 1020.97 1021.04 1021.11 1021.16 1021.31 1021.49 1021.66 1021.79 1022.01 1022.29 1022.58 1022.76 1022.93 1023.00 1023.09 1023.17 1023.18 1023.24 1023.29 1023.27 1023.30 1023.32 1023.41 1023.50 1023.60 1023.66 1023.66 1023.64 1023.67 1023.59 1023.30 1022.98 1022.66 1022.60 1022.54 1022.60 1022.58 1022.36
1020.50 1020.59 1020.71 1020.83 1021.05 1021.26 1021.35 1021.42 1021.55 1021.67 1021.71 1021.88 1022.07 1022.28 1022.56 1022.84 1023.15 1023.27 1023.45 1023.46 1023.57 1023.63 1023.62 1023.62 1023.66 1023.67 1023.77 1023.85 1023.97 1024.01 1024.00 1024.01 1024.04 1024.06 1023.87 1023.53 1023.17 1022.73 1022.70 1022.73 1022.74 1022.68 1022.63
1020.87 1020.87 1020.97 1021.02 1021.35 1021.51 1021.60 1021.75 1021.88 1021.98 1022.02 1022.16 1022.29 1022.58 1022.94 1023.13 1023.42 1023.63 1023.80 1023.86 1023.97 1024.02 1024.03 1024.02 1023.99 1024.07 1024.17 1024.18 1024.22 1024.33 1024.40 1024.41 1024.43 1024.31 1024.14 1023.85 1023.51 1023.02 1023.03 1023.08 1023.11 1023.19 1023.11
1020.83 1021.13 1021.20 1021.32 1021.57 1021.70 1021.82 1022.01 1022.15 1022.21 1022.34 1022.51 1022.58 1022.89 1023.27 1023.49 1023.72 1023.95 1024.10 1024.22 1024.29 1024.30 1024.31 1024.35 1024.38 1024.46 1024.56 1024.57 1024.56 1024.56 1024.64 1024.69 1024.63 1024.51 1024.34 1024.15 1023.68 1023.42 1023.43 1023.47 1023.54 1023.51 1023.58
1021.01 1021.21 1021.41 1021.54 1021.75 1021.95 1022.10 1022.17 1022.38 1022.60 1022.74 1022.88 1022.91 1023.26 1023.56 1023.87 1024.09 1024.31 1024.46 1024.52 1024.52 1024.53 1024.59 1024.64 1024.66 1024.70 1024.72 1024.81 1024.77 1024.81 1024.93 1024.96 1024.85 1024.73 1024.49 1024.27 1023.80 1023.72 1023.84 1023.85 1023.93 1023.94 1023.99
1021.22 1021.43 1021.54 1021.75 1021.97 1022.22 1022.44 1022.47 1022.55 1022.76 1022.93 1023.11 1023.33 1023.55 1023.83 1024.09 1024.26 1024.45 1024.60 1024.60 1024.62 1024.68 1024.76 1024.81 1024.86 1024.92 1025.00 1025.04 1024.95 1025.03 1025.20 1025.17 1025.11 1025.03 1024.84 1024.50 1024.22 1024.17 1024.36 1024.44 1024.41 1024.42 1024.54
1021.60 1021.67 1021.78 1021.92 1022.13 1022.36 1022.56 1022.86 1023.01 1023.16 1023.35 1023.44 1023.67 1023.88 1024.17 1024.49 1024.59 1024.66 1024.82 1024.85 1024.86 1024.90 1025.00 1025.07 1025.09 1025.10 1025.11 1025.24 1025.18 1025.30 1025.43 1025.56 1025.48 1025.36 1025.18 1024.85 1024.63 1024.77 1024.84 1024.82 1024.91 1025.00 1025.08
1021.62 1021.82 1021.86 1021.86 1022.19 1022.51 1022.67 1023.02 1023.31 1023.53 1023.82 1023.94 1024.12 1024.29 1024.51 1024.84 1024.98 1025.07 1025.18 1025.17 1025.18 1025.18 1025.20 1025.24 1025.25 1025.30 1025.39 1025.54 1025.60 1025.61 1025.75 1025.80 1025.78 1025.65 1025.47 1025.18 1025.13 1025.09 1025.08 1025.23 1025.51 1025.61 1025.52
1021.25 1021.69 1021.82 1022.00 1022.13 1022.54 1022.88 1023.21 1023.47 1023.70 1023.97 1024.30 1024.44 1024.59 1024.84 1025.12 1025.29 1025.31 1025.44 1025.50 1025.54 1025.57 1025.72 1025.63 1025.59 1025.56 1025.53 1025.67 1025.79 1025.89 1026.01 1026.12 1026.11 1026.09 1025.82 1025.56 1025.45 1025.33 1025.34 1025.68 1025.85 1025.81 1025.81
1021.02 1021.23 1021.58 1021.90 1022.19 1022.46 1022.80 1023.30 1023.61 1023.93 1024.20 1024.47 1024.60 1024.75 1025.02 1025.36 1025.55 1025.70 1025.84 1025.84 1025.85 1025.77 1025.82 1025.81 1025.83 1025.74 1025.73 1025.75 1025.87 1026.03 1026.21 1026.36 1026.43 1026.38 1026.17 1025.95 1025.81 1025.67 1025.86 1026.24 1026.33 1026.31 1026.18
1020.64 1020.84 1021.27 1021.67 1022.04 1022.35 1022.73 1022.99 1023.38 1023.74 1024.07 1024.31 1024.64 1024.83 1025.08 1025.36 1025.63 1025.79 1025.99 1026.11 1026.08 1026.04 1026.06 1026.05 1025.97 1025.87 1025.85 1025.81 1025.97 1026.14 1026.45 1026.63 1026.73 1026.73 1026.67 1026.45 1026.27 1026.18 1026.42 1026.53 1026.56 1026.50 1026.47
1020.00 1020.31 1020.74 1021.29 1021.63 1022.03 1022.32 1022.70 1022.98 1023.33 1023.66 1024.07 1024.31 1024.55 1024.80 1025.09 1025.32 1025.55 1025.77 1025.90 1025.98 1025.95 1025.94 1025.96 1025.99 1025.95 1025.97 1025.93 1025.93 1026.00 1026.38 1026.74 1026.99 1027.26 1027.18 1027.08 1026.84 1026.83 1027.01 1027.11 1027.06 1026.95 1026.79
1019.49 1019.81 1020.23 1020.76 1021.28 1021.77 1022.26 1022.40 1022.62 1022.97 1023.31 1023.63 1023.87 1024.18 1024.55 1024.82 1025.12 1025.29 1025.46 1025.61 1025.59 1025.62 1025.76 1025.93 1025.94 1025.98 1026.12 1026.04 1026.02 1026.07 1026.55 1027.01 1027.55 1027.79 1027.90 1027.80 1027.63 1027.72 1027.84 1027.81 1027.78 1027.49 1027.27
1019.29 1019.59 1019.92 1020.14 1020.68 1021.36 1021.83 1022.34 1022.53 1022.81 1023.07 1023.29 1023.59 1023.85 1024.11 1024.35 1024.61 1024.86 1025.07 1025.29 1025.38 1025.68 1025.81 1025.89 1026.03 1026.22 1026.35 1026.37 1026.39 1026.48 1026.67 1027.15 1027.60 1027.92 1028.14 1028.24 1028.30 1028.36 1028.51 1028.39 1028.42 1028.31 1027.89
1018.90 1019.24 1019.62 1019.91 1020.19 1020.83 1021.15 1021.70 1022.06 1022.12 1022.66 1023.10 1023.33 1023.61 1023.83 1024.08 1024.29 1024.51 1024.72 1024.88 1025.09 1025.29 1025.48 1025.67 1025.94 1026.09 1026.25 1026.36 1026.47 1026.62 1026.68 1027.23 1027.54 1027.86 1028.46 1028.70 1028.76 1028.91 1028.99 1029.00 1029.03 1028.89 1028.47
1018.62 1018.81 1019.08 1019.51 1019.81 1020.20 1020.85 1021.17 1021.83 1022.04 1021.98 1022.17 1022.62 1022.90 1023.13 1023.42 1023.66 1024.13 1024.40 1024.49 1024.76 1025.17 1025.45 1025.67 1025.82 1025.91 1026.08 1026.33 1026.66 1027.05 1027.25 1027.70 1028.07 1028.40 1028.79 1029.04 1029.22 1029.39 1029.65 1029.75 1029.58 1029.44 1028.90
1018.35 1018.55 1018.62 1019.11 1019.31 1019.85 1020.47 1021.14 1021.51 1021.54 1021.84 1022.00 1022.07 1022.22 1022.45 1022.85 1023.25 1023.60 1023.94 1024.28 1024.62 1024.92 1025.09 1025.22 1025.47 1025.70 1025.95 1026.21 1026.82 1027.52 1027.66 1028.02 1028.39 1028.70 1028.91 1029.28 1029.46 1029.66 1029.75 1029.94 1029.93 1029.96 1029.84
1017.42 1017.59 1018.21 1018.29 1018.81 1019.08 1019.46 1019.99 1020.54 1020.97 1021.23 1021.14 1021.53 1021.91 1022.07 1022.33 1022.64 1023.00 1023.31 1023.61 1023.95 1024.35 1024.64 1024.93 1025.28 1025.59 1025.71 1025.99 1026.40 1026.84 1027.41 1028.10 1028.23 1028.60 1028.94 1029.33 1029.75 1029.85 1029.97 1030.02 1030.09 1030.06 1029.98
1016.53 1016.88 1017.15 1017.34 1017.71 1018.19 1018.76 1019.43 1020.11 1020.51 1021.00 1021.18 1021.31 1021.55 1021.51 1021.54 1021.86 1022.34 1022.74 1023.03 1023.37 1023.75 1024.14 1024.39 1024.67 1025.06 1025.36 1025.55 1025.47 1025.78 1026.67 1027.03 1027.79 1028.51 1028.78 1029.00 1029.46 1029.74 1029.93 1030.03 1030.04 1029.93 1029.79
1015.06 1015.68 1015.95 1016.67 1016.91 1017.38 1018.01 1018.70 1018.97 1019.42 1019.77 1019.99 1020.20 1020.64 1020.82 1021.15 1021.29 1021.61 1021.95 1022.46 1022.85 1023.16 1023.36 1023.38 1023.68 1024.23 1024.62 1024.96 1025.32 1025.11 1025.22 1025.32 1026.78 1028.15 1028.47 1028.56 1028.75 1028.96 1029.24 1029.50 1029.50 1029.48 1029.51
1014.04 1014.36 1014.70 1015.34 1016.14 1016.68 1017.10 1017.44 1018.18 1018.57 1018.79 1019.14 1019.61 1019.94 1020.40 1020.62 1020.79 1020.97 1021.30 1021.66 1021.90 1022.14 1022.34 1022.70 1023.19 1023.61 1023.85 1024.12 1024.37 1024.71 1025.21 1025.38 1025.39 1026.24 1027.41 1027.84 1028.42 1028.18 1028.17 1028.59 1028.61 1028.85 1029.02
1013.10 1013.61 1014.02 1014.59 1014.96 1015.65 1016.29 1016.67 1016.93 1017.52 1018.15 1018.60 1018.85 1019.06 1019.49 1019.89 1020.14 1020.35 1020.61 1020.78 1021.01 1021.23 1021.52 1021.87 1022.20 1022.66 1022.94 1023.20 1023.49 1023.65 1023.63 1023.99 1024.70 1025.28 1026.14 1026.68 1026.91 1027.24 1027.47 1027.64 1028.26 1028.15 1028.41
Wind_Speed
3 4 7 11 13 14 16 16 14 14 15 17 18 18 18 18 18 17 16 15 16 16 16 17 18 17 17 16 19 18 18 18 17 18 18 18 18 18 17 16 13 9 16
6 5 9 10 14 14 14 14 13 14 14 17 17 18 18 18 17 16 15 16 16 16 16 16 17 16 16 14 15 17 17 16 16 16 14 15 16 16 16 15 14 12 14
7 6 7 10 13 14 12 12 12 13 14 16 18 19 16 16 16 15 15 15 15 15 15 16 16 16 16 17 17 15 15 15 14 13 11 4 9 15 14 13 13 14 13
8 5 6 10 13 13 11 11 12 13 13 14 18 18 17 16 14 14 15 13 15 15 15 15 16 16 15 17 15 14 14 14 12 10 5 4 8 12 12 11 11 10 9
7 5 6 10 12 12 10 10 10 12 12 15 17 18 17 15 13 13 13 13 13 14 14 15 15 16 15 15 14 14 13 12 10 8 6 5 5 8 9 7 6 7 10
6 6 7 10 12 11 10 10 11 12 13 15 18 18 16 15 13 11 12 12 12 12 13 14 14 14 13 12 13 13 12 10 8 6 6 8 5 11 14 19 18 18 18
5 5 6 10 10 9 10 10 10 9 14 16 18 18 16 15 12 12 11 11 11 11 12 12 12 12 12 11 11 12 11 9 5 5 5 6 6 13 15 16 17 18 17
9 5 5 8 8 7 8 10 9 10 12 14 17 18 15 14 12 12 11 11 10 10 10 10 10 9 11 11 10 10 9 8 5 5 5 5 9 15 16 15 16 15 15
7 6 5 5 6 6 5 8 9 9 10 13 16 15 13 12 11 10 9 10 10 10 9 9 8 7 8 10 8 9 9 8 5 3 4 4 10 16 14 13 15 15 16
6 5 6 5 5 5 3 5 7 9 10 12 13 12 11 10 10 9 7 8 9 9 8 7 6 6 7 9 9 11 9 7 5 4 4 4 13 15 13 14 14 15 15
4 4 5 6 5 5 5 3 5 8 8 10 9 11 8 4 5 6 5 7 7 7 6 5 4 3 4 8 7 9 7 3 4 3 3 9 13 13 13 13 15 14 14
9 8 5 7 6 5 3 5 4 5 3 4 5 5 4 4 3 3 3 5 5 5 4 3 1 4 4 3 3 6 3 4 3 3 3 10 11 11 12 14 14 12 13
11 8 7 6 6 6 4 3 2 2 3 3 4 4 4 3 2 2 1 0 0 1 1 2 2 1 2 2 3 4 4 3 2 3 4 8 8 10 13 14 11 12 12
12 12 9 7 7 6 4 3 4 3 2 3 4 5 3 2 2 2 1 2 2 2 2 2 0 1 1 1 4 5 4 4 2 2 4 7 6 8 12 11 11 11 11
14 12 11 9 8 6 6 5 4 5 4 5 4 4 4 4 4 3 2 2 2 1 2 2 2 1 1 1 3 5 5 5 4 2 2 8 7 11 12 10 10 9 10
13 14 13 12 10 9 8 8 6 5 5 4 4 5 6 4 4 4 4 4 4 3 3 3 3 3 2 2 3 4 5 4 5 4 3 5 11 12 10 10 9 9 9
10 13 14 13 11 10 8 8 7 6 5 5 5 6 7 6 5 5 4 4 4 4 4 3 2 1 2 3 3 4 5 6 4 5 4 4 6 12 10 9 9 9 8
8 10 12 11 13 11 9 6 5 5 5 5 4 4 7 7 7 6 5 4 4 3 3 2 2 1 1 1 1 3 5 5 5 5 4 3 4 4 7 9 8 8 8
9 9 9 12 13 13 11 8 7 8 7 5 4 4 6 7 7 6 4 4 5 4 4 3 3 2 2 1 2 3 4 4 6 5 5 5 5 5 4 8 9 8 7
8 9 11 9 11 11 7 7 4 4 7 7 8 8 8 7 7 6 4 5 4 3 3 2 3 3 2 2 3 4 4 4 3 2 4 3 4 5 5 4 4 4 6
7 10 12 12 12 10 7 6 5 9 6 6 7 10 9 7 7 7 5 5 5 6 6 6 4 5 4 3 4 3 4 4 4 3 3 3 4 4 5 3 3 2 3
15 14 12 14 13 12 10 8 6 6 4 7 6 6 8 9 9 8 7 7 7 5 6 6 5 3 3 5 4 2 3 2 2 3 2 3 4 3 4 4 3 3 2
16 16 16 16 15 14 14 5 3 3 1 3 3 6 9 11 10 10 9 8 7 6 6 6 7 7 4 4 6 5 3 4 3 2 4 4 6 4 4 4 4 3 3
19 16 18 15 16 15 15 11 14 11 11 9 9 7 7 10 11 10 10 9 8 7 8 9 7 6 4 5 2 5 2 5 4 3 2 4 6 7 6 5 5 5 5
17 18 18 17 16 15 16 17 12 15 10 6 5 7 9 7 11 11 11 10 11 9 10 10 7 9 7 5 4 3 1 1 2 3 4 4 3 5 6 5 6 5 6
14 16 15 17 17 16 16 18 18 17 14 9 7 9 8 8 8 11 11 12 11 11 11 10 10 10 10 9 7 5 5 5 5 4 2 3 5 5 7 6 7 6 5
Wind_Direction
192 165 131 124 116 112 110 110 105 102 101 103 102 99 97 92 88 84 89 90 88 88 89 92 92 88 82 80 81 78 76 73 71 74 73 69 67 67 65 66 58 46 56
142 147 130 128 124 118 118 117 116 110 105 108 107 103 100 96 92 94 90 91 88 89 92 98 93 86 79 86 93 82 81 79 71 65 59 61 68 66 65 60 63 57 56
141 135 124 124 126 124 121 121 122 118 116 115 114 105 101 100 96 92 92 92 89 89 97 103 96 86 80 88 99 86 84 80 71 62 54 37 63 65 65 59 57 45 42
129 120 120 126 129 131 127 123 127 121 125 125 111 108 108 101 103 93 94 92 90 92 101 105 95 86 87 97 96 92 91 83 70 58 42 31 61 65 60 53 49 45 29
115 120 129 129 132 135 129 129 125 121 126 128 120 114 109 105 99 101 95 95 93 93 104 105 94 87 89 102 99 98 95 81 62 43 18 1 357 51 50 47 44 21 32
116 120 136 134 139 139 138 140 129 126 133 132 125 116 115 111 107 105 99 100 96 97 102 101 90 86 87 101 99 96 91 75 55 37 21 7 354 50 47 67 66 61 55
121 123 133 133 141 147 149 141 134 141 136 130 126 119 118 116 117 112 108 110 105 102 100 100 94 90 93 97 107 94 83 70 53 38 21 8 345 56 68 61 54 56 51
135 132 130 137 144 149 144 136 130 130 142 133 119 120 124 123 127 121 119 114 112 108 105 102 95 89 88 90 102 113 92 71 51 38 21 3 26 69 60 57 58 58 56
132 133 133 139 141 138 126 139 133 127 118 123 119 122 118 123 126 121 120 122 116 115 110 101 94 85 76 79 101 117 92 78 63 38 19 358 64 61 59 63 61 67 62
139 142 143 139 140 138 123 127 121 114 118 113 111 113 114 118 118 123 129 136 132 124 120 115 99 78 63 64 85 115 93 72 57 41 18 31 63 68 67 70 72 65 57
130 143 148 146 153 146 135 122 105 108 112 118 120 124 114 123 131 134 152 136 140 135 136 127 103 66 38 63 83 120 93 68 54 42 20 59 72 75 77 76 67 59 61
170 174 169 156 155 147 131 132 116 118 115 110 121 126 118 132 143 132 143 145 144 153 163 156 107 72 69 72 68 93 90 82 60 50 38 66 80 88 88 75 64 66 65
180 178 174 172 152 151 146 141 130 128 129 122 140 135 123 124 127 126 146 153 173 91 8 4 25 59 110 105 88 102 103 89 69 49 41 63 92 99 90 76 77 72 65
174 182 175 177 170 171 149 154 146 142 143 155 173 155 146 149 166 179 219 217 211 206 226 228 246 219 176 127 115 123 119 107 82 71 49 51 76 104 89 81 73 69 65
181 180 182 176 182 176 170 165 165 174 172 179 175 184 172 175 185 178 215 231 242 260 244 228 226 230 230 222 123 135 131 119 100 78 53 49 40 89 88 86 77 74 70
182 183 179 183 187 180 183 180 184 177 184 176 182 197 190 185 182 187 197 218 233 219 224 213 211 220 242 256 197 148 132 116 108 86 59 38 65 87 89 80 69 66 68
190 183 181 181 187 187 199 193 183 188 188 192 197 190 191 192 197 197 202 212 218 211 215 212 230 247 278 293 283 130 127 118 98 90 66 53 61 66 72 74 63 59 61
185 189 183 181 184 190 190 190 189 188 188 199 199 191 196 195 192 197 196 211 210 202 198 193 202 255 288 235 71 105 125 131 117 113 100 79 64 67 69 74 56 46 51
192 187 184 187 179 189 193 190 196 181 185 202 193 194 203 198 201 195 194 203 193 197 196 190 198 178 203 194 142 153 124 150 144 134 121 104 91 86 75 82 60 34 44
198 193 198 190 187 182 188 189 185 195 198 191 200 206 200 209 204 191 206 214 186 178 200 182 195 204 197 152 101 83 73 71 72 73 117 100 97 92 86 80 55 357 44
207 196 198 199 195 180 185 186 202 208 205 213 210 209 199 198 197 195 200 195 185 196 199 195 182 197 221 149 107 81 70 87 103 110 126 124 119 114 116 108 86 37 3
211 209 205 202 197 198 197 200 203 191 210 209 198 203 201 198 203 202 199 201 194 194 200 191 179 184 219 180 155 153 158 158 177 162 145 147 156 144 139 134 114 97 51
210 207 208 207 200 200 203 174 119 117 72 164 191 209 212 204 203 203 204 204 202 196 204 200 196 188 201 210 210 155 154 210 140 158 192 178 168 174 169 163 156 156 163
213 207 211 210 204 202 194 192 200 208 210 213 212 215 212 212 213 207 206 205 204 201 207 208 197 199 168 209 218 231 273 147 178 190 220 200 185 189 186 190 183 183 187
212 206 206 205 205 203 201 202 202 216 219 209 200 195 210 211 216 210 206 202 207 207 215 211 193 202 203 200 185 148 133 355 93 141 195 207 232 207 194 198 184 181 189
210 212 205 202 205 199 202 204 206 212 217 213 201 203 206 213 213 218 210 213 216 215 214 212 212 207 209 215 212 196 185 176 189 169 172 192 207 208 198 184 199 190 188